Location: Unspecified
(0.0000°N, 0.0000°E)
Time: 02:57:23
(UTC+00:00)

S-56A Canister/Altair - Pass Details

Date: 17 December 2018
Orbit: 633 x 2500 km, 38.9° (Epoch: 15 January)

Event Time Altitude Azimuth Distance (km) Brightness Sun altitude
Rises 12:41:18 0° 285° (WNW) 6,026 12.1 64.2°
Reaches altitude 10° 12:46:29 10° 274° (W) 4,824 11.9 63.6°
Maximum altitude 12:56:28 26° 225° (SW) 3,177 11.6 62.4°
Drops below altitude 10° 13:04:14 10° 172° (S) 3,657 11.5 61.4°
Sets 13:07:34 0° 159° (SSE) 4,348 11.6 60.9°
